Grand Canyon, AZ

6:47 AM MST on February 13, 2016 (GMT -0700)
Grand Canyon National Park

Weather History for KGCN - March, 2013

Change the Weather History Date:

Sunday, March 10, 2013

  Actual Average Record
Temperature  
Mean Temperature 30 °F -  
Max Temperature 46 °F 50 °F 71 °F (1989)
Min Temperature 15 °F 19 °F 12 °F (1999)
Degree Days  
Heating Degree Days 34    
Moisture  
Dew Point 18 °F    
Average Humidity 62    
Maximum Humidity 85    
Minimum Humidity 29    
Precipitation  
Precipitation 0.00 in - - ()
Sea Level Pressure  
Sea Level Pressure 30.25 in    
Wind  
Wind Speed 5 mph (NE)    
Max Wind Speed 12 mph    
Max Gust Speed -    
Visibility 10 miles    
Events      
Averages and records for this station are not official NWS values.
T = Trace of Precipitation, MM = Missing Value Source: NWS Daily Summary

Daily Weather History Graph

Daily Weather History Graph

Search for Another Location

Airport or City:

Trip Planner

Search our weather history database for the weather conditions in past years. The results will help you decide how hot, cold, wet, or windy it might be!

Date:

Astronomy

Mar. 10, 2013 Rise Set
Actual Time 6:45 AM MST 6:32 PM MST
Civil Twilight 6:20 AM MST 6:57 PM MST
Nautical Twilight 5:50 AM MST 7:27 PM MST
Astronomical Twilight 5:21 AM MST 7:57 PM MST
Moon 5:47 AM MST (3/10) 5:44 PM MST (3/10)
Length of Visible Light 12h 37m
Length of Day
11h 46m
Waning Crescent, 1% of the Moon is Illuminated
Mar 10
Waning Crescent
Mar 11
New
Mar 19
First Quarter
Mar 27
Full
Apr 2
Last Quarter

Hourly Weather History & Observations

Time (MST) Temp. Windchill Dew Point Humidity Pressure Visibility Wind Dir Wind Speed Gust Speed Precip Events Conditions
12:54 AM 16.0 °F - 12.0 °F 84% 30.20 in 10.0 mi Calm Calm - N/A   Clear
1:54 AM 15.1 °F 9.4 °F 10.9 °F 84% 30.20 in 10.0 mi NE 3.5 mph - N/A   Clear
2:54 AM 16.0 °F 5.3 °F 12.0 °F 84% 30.19 in 10.0 mi NE 8.1 mph - N/A   Clear
3:54 AM 21.0 °F 9.3 °F 16.0 °F 81% 30.18 in 10.0 mi NE 11.5 mph - N/A   Clear
5:54 AM 15.1 °F 4.2 °F 10.9 °F 84% 30.24 in 10.0 mi NE 8.1 mph - N/A   Clear
6:54 AM 19.9 °F 14.9 °F 16.0 °F 85% 30.24 in 10.0 mi NE 3.5 mph - N/A   Clear
7:54 AM 27.0 °F 20.5 °F 19.9 °F 75% 30.25 in 10.0 mi NNE 5.8 mph - N/A   Clear
8:54 AM 34.0 °F 29.8 °F 21.9 °F 61% 30.25 in 10.0 mi NE 4.6 mph - N/A   Clear
9:54 AM 37.0 °F 34.5 °F 19.9 °F 50% 30.28 in 10.0 mi Variable 3.5 mph - N/A   Clear
10:54 AM 39.0 °F 35.7 °F 21.0 °F 49% 30.27 in 10.0 mi Variable 4.6 mph - N/A   Clear
11:54 AM 39.9 °F 35.1 °F 19.9 °F 45% 30.27 in 10.0 mi NE 6.9 mph - N/A   Clear
12:54 PM 42.1 °F 37.1 °F 21.0 °F 43% 30.27 in 10.0 mi East 8.1 mph - N/A   Clear
1:54 PM 44.1 °F 39.0 °F 21.0 °F 40% 30.25 in 10.0 mi NE 9.2 mph - N/A   Clear
2:54 PM 46.0 °F 41.9 °F 19.9 °F 35% 30.24 in 10.0 mi NE 8.1 mph - N/A   Clear
3:54 PM 46.0 °F 41.9 °F 18.0 °F 33% 30.22 in 10.0 mi ENE 8.1 mph - N/A   Clear
4:54 PM 46.0 °F 41.4 °F 16.0 °F 30% 30.24 in 10.0 mi East 9.2 mph - N/A   Clear
5:54 PM 45.0 °F 41.8 °F 14.0 °F 29% 30.25 in 10.0 mi ENE 5.8 mph - N/A   Clear
7:54 PM 28.0 °F - 19.9 °F 72% 30.30 in 10.0 mi Calm Calm - N/A   Clear
8:54 PM 26.1 °F - 21.0 °F 81% 30.30 in 10.0 mi Calm Calm - N/A   Clear
10:54 PM 24.1 °F - 19.0 °F 81% 30.29 in 10.0 mi Calm Calm - N/A   Clear
11:54 PM 21.9 °F - 18.0 °F 85% 30.30 in 10.0 mi Calm Calm - N/A   Clear